Location: Melque
(41.0517°N, 4.4694°W)
Time: 11:56:47
(UTC+00:00)

SKYMED 2 - Pass Details

Date: 22 March 2026
Orbit: 622 x 624 km, 97.9° (Epoch: 14 April)

Event Time Altitude Azimuth Distance (km) Brightness Sun altitude
Rises 05:03:38 0° 151° (SSE) 2,891 7.2 -14.7°
Reaches altitude 10° 05:05:52 10° 145° (SE) 1,988 6.4 -14.3°
Maximum altitude 05:10:00 46° 72° (ENE) 838 4.8 -13.6°
Drops below altitude 10° 05:14:10 10° 360° (N) 2,002 6.3 -12.8°
Sets 05:16:26 0° 354° (N) 2,912 7.1 -12.4°
